Regional Weather Roundup
Issued by NWS Upton, NY

Current Version | Previous Version | Graphics & Text | Print | Product List | Glossary Off
Versions: 1 2 3 4 5 6 7 8 9 10 11 12 13 14 15 16 17 18 19 20 21 22 23 24 25 26 27
000 ASUS41 KOKX 270809 RWROKX REGIONAL WEATHER ROUNDUP NATIONAL WEATHER SERVICE NEW YORK NY 400 AM EDT TUE JUN 27 2017 NOTE: "FAIR" INDICATES FEW OR NO CLOUDS BELOW 12,000 FEET WITH NO SIGNIFICANT WEATHER AND/OR OBSTRUCTIONS TO VISIBILITY. NYZ071-072-176-178-NJZ106-104-270900- NEW YORK CITY METRO AREA CITY SKY/WX TMP DP RH WIND PRES REMARKS Central Park CLOUDY 66 50 56 VRB5 30.01F Bronx Bot Gard N/A 64 50 59 NE3 29.98F LaGuardia APRT CLOUDY 68 53 58 NE6 29.98F Kennedy INTL MOCLDY 67 51 56 N9 29.99S Breezy Point N/A 68 N/A N/A N9 N/A Newark/Liberty CLOUDY 66 51 58 N8 29.99S Teterboro NOT AVBL $$ NYZ177-179-078>081-270900- LONG ISLAND NEW YORK CITY SKY/WX TMP DP RH WIND PRES REMARKS Jones Beach N/A 66 N/A N/A N6 N/A Matinecock PT NOT AVBL Farmingdale NOT AVBL MacArthur/ISP NOT AVBL Shirley NOT AVBL Mt Sinai Harb N/A N/A N/A N/A S2 N/A Westhampton NOT AVBL East Hampton FAIR 63 61 92 S3 29.99F Montauk N/A 67 64 90 VRB5 30.01S $$ NYZ052-065-067-270900- HUDSON VALLEY CITY SKY/WX TMP DP RH WIND PRES REMARKS White Plains NOT AVBL Larchmont Harb N/A 64 N/A N/A N7 N/A Croton O-T Hud N/A 63 N/A N/A N2G8 N/A Newburgh PTCLDY 59 57 94 VRB6 30.00F Montgomery NOT AVBL Poughkeepsie NOT AVBL Albany MOCLDY 57 54 89 CALM 29.98S $$ NJZ001-105-106-008-010-013-015-019>022-104-270900- NEW JERSEY CITY SKY/WX TMP DP RH WIND PRES REMARKS Newark/Liberty CLOUDY 66 51 58 N8 29.99S Teterboro NOT AVBL Caldwell NOT AVBL Somerville NOT AVBL Linden CLOUDY 67 49 51 CALM 29.99S Perth Amboy N/A 66 N/A N/A N2 N/A Sussex NOT AVBL Andover N/A 58 55 90 CALM 30.00S Trenton NOT AVBL Millville NOT AVBL Atlantic City PTCLDY 65 60 84 S5 29.98S Wrightstown CLOUDY 63 55 76 N6 30.00R Toms River NOT AVBL Belmar NOT AVBL $$ PAZ047>061-062-071-270900- EASTERN PENNSYLVANIA CITY SKY/WX TMP DP RH WIND PRES REMARKS Philadelphia LGT RAIN 62 58 86 E6 30.00S Allentown NOT AVBL Scranton NOT AVBL $$ CTZ002-004>006-009-010-012-RIZ004-006-007-MAZ004-011-015-270900- SOUTHERN NEW ENGLAND IN CT CITY SKY/WX TMP DP RH WIND PRES REMARKS Bradley INTL CLOUDY 57 54 89 CALM 30.01S Hartford PTCLDY 60 55 83 NE5 30.00S Danbury NOT AVBL Wtrbury/Oxford CLOUDY 57 48 72 NE7 30.01S Bridgeport NOT AVBL Meriden MOCLDY 57 55 93 CALM 30.00S New Haven NOT AVBL Chester PTSUNNY 63 61 94 NW3 30.00S Groton PTCLDY 57 55 93 CALM 29.98F Wilimantic CLEAR 57 54 89 NE3 30.01R IN RI CITY SKY/WX TMP DP RH WIND PRES REMARKS Providence CLEAR 60 57 89 NW3 30.01R Block Island CLEAR 65 62 90 SW13 30.01R Westerly CLEAR 58 56 93 CALM 30.00S IN MA CITY SKY/WX TMP DP RH WIND PRES REMARKS Boston CLEAR 61 54 77 CALM 30.00R Worcester CLEAR 56 50 80 NW7 30.01S Westfield PTCLDY 53 53 100 CALM N/A Provincetown PTCLDY 59 57 93 S5 30.01R Nantucket CLEAR 59 58 96 S8 30.02S $$ ANZ330-335-338-340-345-350-353-355-270900- COASTAL MARINE OBSERVATIONS STATION/POSITION TIME SKY/WX TEMP WIND PRES VSBY WAVE AIR SEA DIR/SP/G HT/PER (UTC) (F) (DEG/KT/KT) (MB) (MI) (FT/S) NY HARB ENTRANCE 0650 68 67 230/ 6/ 8 1015.2 2/ 4 20 S FIRE ISLAND 0750 70 69 200/ 10/ 12 1014.9 2/ 4 GREAT SOUTH BAY 0730 71 75 240/ 10/ 12 N/A 23 SSW MONTAUK P 0650 67 65 1016.2 2/ 4 15 E BARNEGAT LI 0730 65 N/A 2/ 8 HUDSON CANYON 0650 69 68 200/ 4/ 6 1016.1 2/ 7 KINGS POINT 0742 66 63 60/ 4/ 8 1015.2 EXECUTION ROCKS 0745 67 30/ 8/ 10 N/A CENTRAL LI SOUND 0730 69 210/ 10/ 12 N/A 1 EASTERN LI SOUND NOT AVBL ROBBINS REEF 0736 20/ 8/ 11 1015.9 $$ >>>>>>>>>>>>>>>>>>>>>>>>>>>> KEY <<<<<<<<<<<<<<<<<<<<<<<<<<< > < > SKY/WX - Sky Condition/Present Weather < > TMP - Temperature in Fahrenheit < > DP - Dew Point in Fahrenheit < > RH - Relative Humidity in Percent < > WIND - Direction (from) and Speed in MPH < > PRES - Mean Sea Level Pressure (inches of Hg) < > WCI - Wind Chill Index < > VSB - VISIBILITY IN MILES < > HX - HEAT INDEX < > TC - TEMPERATURE IN CELSIUS < > VRB - VARIABLE WIND DIRECTION < > < >>>>>>>>>>>>>>>>>>>>>>>>>>>> KEY <<<<<<<<<<<<<<<<<<<<<<<<<<<

USA.gov is the U.S. government's official web portal to all federal, state and local government web resources and services.